Weather History for Central Park, NY

Change the Weather History Date:

Monday, August 4, 2014

  Actual Average Record
Temperature  
Mean Temperature 77 °F 76 °F  
Max Temperature 84 °F 84 °F 100 °F (1944)
Min Temperature 70 °F 69 °F 56 °F (1886)
Degree Days  
Heating Degree Days 0 0  
Month to date heating degree days 0 0  
Since 1 June heating degree days 0 19  
Since 1 July heating degree days 0 0  
Cooling Degree Days 12 11  
Month to date cooling degree days 35 45  
Year to date cooling degree days 672 681  
Since 1 June cooling degree days 618 612  
Growing Degree Days 26 (Base 50)    
Moisture  
Dew Point 65 °F    
Average Humidity 68    
Maximum Humidity 84    
Minimum Humidity 51    
Precipitation  
Precipitation 0.00 in 0.16 in 3.25 in (1915)
Month to date precipitation 0.48 0.65  
Year to date precipitation 34.49 29.45  
Snow  
Snow 0.00 in 0.00 in 0.00 in (2002)
Month to date snowfall 0.0 0.0  
Since 1 July snowfall 0.0 0.0  
Snow Depth 0.00 in    
Sea Level Pressure  
Sea Level Pressure 30.06 in    
Wind  
Wind Speed 3 mph (West)    
Max Wind Speed 9 mph    
Max Gust Speed 15 mph    
Visibility 10 miles    
Events      
T = Trace of Precipitation, MM = Missing Value Source: NWS Daily Summary

Daily Weather History Graph

Daily Weather History Graph

Search for Another Location

Airport:

Trip Planner

Search our weather history database for the weather conditions in past years. The results will help you decide how hot, cold, wet, or windy it might be!

Date:

Astronomy

Aug. 04, 2014 Rise Set
Actual Time 5:55 AM EDT 8:08 PM EDT
Civil Twilight 5:24 AM EDT 8:38 PM EDT
Nautical Twilight 4:47 AM EDT 9:15 PM EDT
Astronomical Twilight 4:06 AM EDT 9:56 PM EDT
Moon 2:17 PM EDT (8/4) 12:00 AM EDT (8/4)
Length of Visible Light 15h 13m
Length of Day
14h 12m
First Quarter, 57% of the Moon is Illuminated
Aug 4
First Quarter
Aug 10
Full
Aug 17
Last Quarter
Aug 25
New
Sep 2
First Quarter

Hourly Weather History & Observations

Time (EDT) Temp. Heat Index Dew Point Humidity Pressure Visibility Wind Dir Wind Speed Gust Speed Precip Events Conditions
12:26 AM 70.0 °F - 64.9 °F 84% 30.09 in 10.0 mi Calm Calm - N/A   Overcast
12:51 AM 71.1 °F - 64.9 °F 81% 30.06 in 10.0 mi Calm Calm - N/A   Overcast
1:51 AM 71.1 °F - 64.9 °F 81% 30.05 in 10.0 mi Calm Calm - N/A   Overcast
2:28 AM 71.1 °F - 64.9 °F 81% 30.08 in 10.0 mi Variable 3.5 mph - N/A   Overcast
2:51 AM 71.6 °F - 64.4 °F 78% 30.08 in 10.0 mi WSW 4.6 mph - N/A   Overcast
3:29 AM 71.1 °F - 64.9 °F 81% 30.07 in 10.0 mi WSW 5.8 mph - N/A   Overcast
3:44 AM 70.0 °F - 64.9 °F 84% 30.08 in 10.0 mi Variable 4.6 mph - N/A   Mostly Cloudy
3:51 AM 70.0 °F - 64.9 °F 84% 30.05 in 10.0 mi West 3.5 mph - N/A   Mostly Cloudy
4:07 AM 71.1 °F - 64.9 °F 81% 30.07 in 10.0 mi Calm Calm - N/A   Overcast
4:33 AM 71.1 °F - 64.9 °F 81% 30.07 in 10.0 mi Variable 3.5 mph - N/A   Overcast
4:41 AM 70.0 °F - 64.9 °F 84% 30.07 in 10.0 mi Calm Calm - N/A   Overcast
4:51 AM 71.1 °F - 64.9 °F 81% 30.04 in 10.0 mi Variable 4.6 mph - N/A   Overcast
5:51 AM 71.1 °F - 64.9 °F 81% 30.05 in 10.0 mi Variable 3.5 mph - N/A   Overcast
6:51 AM 71.1 °F - 66.0 °F 84% 30.06 in 6.0 mi Calm Calm - N/A   Haze
7:51 AM 71.1 °F - 66.0 °F 84% 30.06 in 7.0 mi Variable 4.6 mph - N/A   Overcast
8:11 AM 72.0 °F - 66.0 °F 81% 30.09 in 7.0 mi Variable 3.5 mph - N/A   Scattered Clouds
8:51 AM 73.0 °F - 66.0 °F 79% 30.06 in 7.0 mi Variable 3.5 mph - N/A   Partly Cloudy
9:51 AM 75.0 °F - 64.0 °F 69% 30.07 in 8.0 mi Calm Calm - N/A   Clear
10:51 AM 78.1 °F - 64.0 °F 62% 30.07 in 10.0 mi Variable 3.5 mph - N/A   Partly Cloudy
11:51 AM 81.0 °F 82.2 °F 63.0 °F 54% 30.06 in 10.0 mi WNW 4.6 mph - N/A   Partly Cloudy
12:51 PM 81.0 °F 82.5 °F 64.0 °F 56% 30.06 in 10.0 mi Variable 4.6 mph - N/A   Scattered Clouds
1:51 PM 82.0 °F 83.1 °F 63.0 °F 52% 30.04 in 10.0 mi Variable 3.5 mph - N/A   Clear
2:51 PM 82.9 °F 84.4 °F 64.0 °F 53% 30.04 in 10.0 mi Variable 6.9 mph - N/A   Scattered Clouds
3:51 PM 82.9 °F 84.0 °F 63.0 °F 51% 30.03 in 10.0 mi WSW 8.1 mph - N/A   Clear
4:51 PM 81.0 °F 83.0 °F 66.0 °F 60% 30.02 in 10.0 mi North - - N/A   Clear
5:51 PM 80.1 °F 82.1 °F 66.0 °F 62% 30.02 in 10.0 mi Variable 5.8 mph - N/A   Clear
6:51 PM 80.1 °F 82.1 °F 66.0 °F 62% 30.02 in 10.0 mi Variable 4.6 mph - N/A   Clear
7:51 PM 78.1 °F - 66.0 °F 66% 30.02 in 10.0 mi Variable 3.5 mph - N/A   Clear
8:51 PM 77.0 °F - 66.0 °F 69% 30.04 in 10.0 mi Calm Calm - N/A   Clear
9:51 PM 77.0 °F - 62.6 °F 61% 30.07 in 10.0 mi Calm Calm - N/A   Clear
10:51 PM 77.0 °F - 62.1 °F 60% 30.04 in 10.0 mi WSW 3.5 mph - N/A   Clear
11:51 PM 75.9 °F - 63.0 °F 64% 30.05 in 10.0 mi WSW 4.6 mph - N/A   Clear